User: anonymous   Login
Location: Unspecified
(0.0000°N, 0.0000°E)
Time: 06:14:08
(UTC+00:00)
Language:

TISAT 1 - Orbit

View from above orbital plane
View from above orbital plane
View from above satellite
View from above satellite

Ground track
Ground track

The orbit data is extracted from the following two-line orbital elements,

1 36799U 10035E   18199.32606255  .00000447  00000-0  51409-4 0  9998
2 36799  98.1106 336.3744 0013712 105.3464 254.9269 14.90834920434792
Epoch (UTC): 18 July 2018 07:49:31
Eccentricity: 0.0013712
inclination: 98.1106°
perigee height: 586 km
apogee height: 605 km
right ascension of ascending node: 336.3744°
argument of perigee: 105.3464°
revolutions per day: 14.90834920
mean anomaly at epoch: 254.9269°
orbit number at epoch: 43479

The dashed part of the orbit path shows where the satellite is in the earth's shadow,  

DLR